Weather History for Hat Yai, Thailand

Change the Weather History Date:

Thursday, April 19, 2012

  Actual Average Record
Temperature  
Mean Temperature 82 °F -  
Max Temperature 90 °F 89 °F 98 °F (2001)
Min Temperature 75 °F 75 °F 73 °F (2005)
Cooling Degree Days 18    
Growing Degree Days 32 (Base 50)    
Moisture  
Dew Point 75 °F    
Average Humidity 87    
Maximum Humidity 94    
Minimum Humidity 71    
Precipitation  
Precipitation 0.12 in - - ()
Sea Level Pressure  
Sea Level Pressure 29.78 in    
Wind  
Wind Speed 2 mph ()    
Max Wind Speed 18 mph    
Max Gust Speed 23 mph    
Visibility 4.1 miles    
Events Fog , Rain , Thunderstorm    
Averages and records for this station are not official NWS values.
T = Trace of Precipitation, MM = Missing Value Source: Averaged Metar Reports

Daily Weather History Graph

Daily Weather History Graph

Search for Another Location

Airport:

Trip Planner

Search our weather history database for the weather conditions in past years. The results will help you decide how hot, cold, wet, or windy it might be!

Date:

Astronomy

Apr. 19, 2012 Rise Set
Actual Time 6:08 AM ICT 6:26 PM ICT
Civil Twilight 5:47 AM ICT 6:47 PM ICT
Nautical Twilight 5:22 AM ICT 7:12 PM ICT
Astronomical Twilight 4:57 AM ICT 7:37 PM ICT
Moon 4:29 AM ICT (4/19) 4:56 PM ICT (4/19)
Length of Visible Light 13h 00m
Length of Day
12h 17m
Waning Crescent, 4% of the Moon is Illuminated
Apr 19
Waning Crescent
Apr 21
New
Apr 29
First Quarter
May 6
Full
May 13
Last Quarter

Hourly Weather History & Observations

Time (ICT) Temp. Heat Index Dew Point Humidity Pressure Visibility Wind Dir Wind Speed Gust Speed Precip Events Conditions
12:00 AM 75.2 °F - 71.6 °F 89% 29.80 in 4.3 mi Calm Calm - N/A   Mostly Cloudy
12:30 AM 75.2 °F - 71.6 °F 89% 29.80 in 3.1 mi Calm Calm - N/A   Mostly Cloudy
1:00 AM 76 °F - 72 °F 85% 29.79 in 3 mi Calm Calm - -   Mist
1:00 AM 75.2 °F - 71.6 °F 89% 29.77 in 3.1 mi Calm Calm - N/A   Mostly Cloudy
1:30 AM 75.2 °F - 71.6 °F 89% 29.77 in 2.5 mi Calm Calm - N/A   Mostly Cloudy
2:00 AM 75.2 °F - 71.6 °F 89% 29.77 in 2.5 mi Calm Calm - N/A   Mostly Cloudy
2:30 AM 75.2 °F - 71.6 °F 89% 29.74 in 3.7 mi Calm Calm - N/A   Mostly Cloudy
3:00 AM 75.2 °F - 71.6 °F 89% 29.74 in 3.7 mi Calm Calm - N/A   Mostly Cloudy
3:30 AM 75.2 °F - 73.4 °F 94% 29.74 in 1.9 mi South 2.3 mph - N/A   Mostly Cloudy
4:00 AM 75.2 °F - 73.4 °F 94% 29.74 in 1.2 mi SSW 2.3 mph - N/A   Mostly Cloudy
4:30 AM 75.2 °F - 73.4 °F 94% 29.74 in 1.9 mi SSW 4.6 mph - N/A   Mostly Cloudy
5:00 AM 75.2 °F - 73.4 °F 94% 29.74 in 1.9 mi South 2.3 mph - N/A   Mostly Cloudy
5:30 AM 75.2 °F - 73.4 °F 94% 29.74 in 1.9 mi Calm Calm - N/A   Mostly Cloudy
6:00 AM 75.2 °F - 73.4 °F 94% 29.77 in 0.6 mi Calm Calm - N/A   Mostly Cloudy
6:04 AM 75.2 °F - 73.4 °F 94% 29.77 in 0.4 mi Calm Calm - N/A Fog Fog
6:13 AM 75.2 °F - 73.4 °F 94% 29.77 in 0.2 mi Calm Calm - N/A Fog Fog
6:30 AM 75.2 °F - 73.4 °F 94% 29.77 in 0.1 mi Calm Calm - N/A Fog Fog
7:00 AM 76 °F - 73 °F 86% 29.78 in 0 mi Calm Calm - - Fog Partial Fog
7:00 AM 75.2 °F - 73.4 °F 94% 29.77 in 0.4 mi Calm Calm - N/A Fog Fog
7:09 AM 75.2 °F - 73.4 °F 94% 29.80 in 0.5 mi Calm Calm - N/A Fog Fog
7:15 AM 75.2 °F - 73.4 °F 94% 29.80 in 0.6 mi Calm Calm - N/A   Mostly Cloudy
7:30 AM 75.2 °F - 73.4 °F 94% 29.80 in 1.2 mi South 2.3 mph - N/A   Mostly Cloudy
8:00 AM 77.0 °F - 75.2 °F 94% 29.80 in 3.1 mi South 2.3 mph - N/A   Mostly Cloudy
8:30 AM 78.8 °F - 75.2 °F 89% 29.83 in 3.7 mi South 2.3 mph - N/A   Mostly Cloudy
9:00 AM 80.6 °F 87.1 °F 77.0 °F 89% 29.83 in 4.3 mi WSW 3.5 mph - N/A   Mostly Cloudy
9:30 AM 82.4 °F 92.4 °F 78.8 °F 89% 29.83 in 5.6 mi SSW 4.6 mph - N/A   Mostly Cloudy
10:00 AM 84.2 °F 98.3 °F 80.6 °F 89% 29.83 in 6.2 mi SSE 3.5 mph - N/A   Mostly Cloudy
10:30 AM 86.0 °F 104.7 °F 82.4 °F 89% 29.83 in 6.2 mi SSW 3.5 mph - N/A   Mostly Cloudy
11:00 AM 87.8 °F 108.2 °F 82.4 °F 84% 29.83 in 6.2 mi SSW 5.8 mph - N/A   Mostly Cloudy
11:30 AM 89.6 °F 115.0 °F 84.2 °F 84% 29.83 in 6.2 mi South 4.6 mph - N/A   Mostly Cloudy
12:00 PM 89.6 °F 111.1 °F 82.4 °F 79% 29.80 in 6.2 mi South 3.5 mph - N/A   Mostly Cloudy
12:30 PM 89.6 °F 111.1 °F 82.4 °F 79% 29.80 in 6.2 mi SSW 4.6 mph - N/A   Mostly Cloudy
1:00 PM 90 °F - 82 °F 71% 29.78 in 6 mi West 4.6 mph - -   Partly Cloudy
1:00 PM 91.4 °F 111.0 °F 80.6 °F 71% 29.77 in 6.2 mi West 3.5 mph - N/A   Mostly Cloudy
1:12 PM 84.2 °F 92.3 °F 75.2 °F 74% 29.77 in 6.2 mi SSW 3.5 mph 23.0 mph N/A   Mostly Cloudy
1:20 PM 80.6 °F 85.4 °F 73.4 °F 79% 29.77 in 6.2 mi SSW 18.4 mph - N/A Thunderstorm Thunderstorm
1:30 PM 80.6 °F 84.6 °F 71.6 °F 74% 29.77 in 5.6 mi SSW 13.8 mph - N/A Rain Rain
2:00 PM 78.8 °F - 73.4 °F 83% 29.77 in 5.0 mi SSW 9.2 mph - N/A Rain Light Rain
2:30 PM 78.8 °F - 71.6 °F 78% 29.74 in 5.6 mi WNW 4.6 mph - N/A Rain Light Rain
2:48 PM 78.8 °F - 71.6 °F 78% 29.74 in 5.6 mi Calm Calm - N/A Rain Rain
3:00 PM 78.8 °F - 73.4 °F 83% 29.74 in 5.6 mi WNW 4.6 mph - N/A Rain Rain
3:30 PM 78.8 °F - 73.4 °F 83% 29.74 in 6.2 mi Calm Calm - N/A   Mostly Cloudy
4:00 PM 78.8 °F - 73.4 °F 83% 29.74 in 6.2 mi ESE 3.5 mph - N/A   Mostly Cloudy
4:30 PM 78.8 °F - 75.2 °F 89% 29.74 in 6.2 mi SE 5.8 mph - N/A   Mostly Cloudy
5:00 PM 80.6 °F 86.2 °F 75.2 °F 84% 29.74 in 6.2 mi ESE 3.5 mph - N/A   Mostly Cloudy
5:30 PM 80.6 °F 86.2 °F 75.2 °F 84% 29.74 in 6.2 mi ESE 3.5 mph - N/A   Mostly Cloudy
6:00 PM 78.8 °F - 75.2 °F 89% 29.74 in 6.2 mi ESE 3.5 mph - N/A   Mostly Cloudy
6:30 PM 78.8 °F - 75.2 °F 89% 29.74 in 5.0 mi SE 3.5 mph - N/A   Mostly Cloudy
7:00 PM 79 °F - 74 °F 82% 29.76 in 5 mi Calm Calm - -   Mist
7:00 PM 78.8 °F - 75.2 °F 89% 29.74 in 5.0 mi Calm Calm - N/A   Mostly Cloudy
7:30 PM 78.8 °F - 75.2 °F 89% 29.77 in 5.0 mi Calm Calm - N/A   Overcast
8:00 PM 78.8 °F - 75.2 °F 89% 29.80 in 5.0 mi Calm Calm - N/A   Mostly Cloudy
8:30 PM 78.8 °F - 75.2 °F 89% 29.80 in 5.6 mi South 3.5 mph - N/A   Mostly Cloudy
9:00 PM 78.8 °F - 75.2 °F 89% 29.80 in 5.6 mi Calm Calm - N/A   Mostly Cloudy
9:30 PM 78.8 °F - 75.2 °F 89% 29.80 in 5.0 mi Calm Calm - N/A   Mostly Cloudy
10:00 PM 78.8 °F - 75.2 °F 89% 29.83 in 5.0 mi Calm Calm - N/A   Mostly Cloudy
10:30 PM 78.8 °F - 73.4 °F 83% 29.83 in 5.0 mi Calm Calm - N/A   Mostly Cloudy
11:00 PM 77.0 °F - 73.4 °F 89% 29.83 in 5.0 mi Calm Calm - N/A   Mostly Cloudy
11:30 PM 77.0 °F - 73.4 °F 89% 29.83 in 5.0 mi Calm Calm - N/A   Mostly Cloudy